Helicity
72 85 75 109 146 128 135 180 105 116 195 150 103 105 133 164 119 88 44 22 83 74 58 53 37 38 25 24 18 9 21 33 43 43 25 20 23 8 1 -8 9 25 57 34 21 24 20 18 19
63 83 60 108 178 180 164 149 143 63 69 122 150 108 166 216 93 45 64 42 75 90 63 42 52 56 44 24 15 -6 -8 25 36 28 23 15 11 8 18 36 36 63 53 37 26 24 19 17 17
48 46 101 121 151 150 165 102 102 98 83 108 141 113 152 180 49 3 59 100 58 88 72 45 61 66 56 37 20 6 -1 19 55 32 21 14 12 21 43 55 80 65 47 30 28 20 13 11 6
36 95 112 184 203 86 110 236 68 116 123 98 86 157 152 137 68 20 112 115 47 94 111 90 90 71 60 42 20 -3 22 12 30 25 19 18 15 24 36 35 39 43 31 25 24 17 9 4 -2
37 138 195 200 171 58 10 32 36 74 43 85 97 130 150 130 47 52 114 101 126 109 115 119 88 73 72 54 26 37 33 24 22 20 20 15 19 25 17 14 17 22 22 22 21 14 7 1 -7
244 111 346 201 156 44 86 55 82 81 78 109 94 135 122 70 72 39 98 165 147 138 135 108 94 104 84 72 55 55 47 33 32 -7 14 20 18 13 15 15 11 14 16 19 16 11 6 0 -5
246 175 208 284 236 77 78 33 84 106 125 88 60 162 117 132 78 37 76 108 126 107 103 104 109 121 116 115 77 71 47 54 37 30 20 27 26 25 26 22 23 24 23 22 13 10 8 6 2
372 235 95 186 205 195 85 41 58 81 122 87 62 130 111 90 124 142 159 98 93 56 60 87 119 104 107 106 108 104 71 51 56 54 42 42 36 32 35 28 30 34 31 34 21 16 16 16 12
313 199 97 73 161 85 156 219 149 88 150 165 84 73 83 89 111 164 177 138 81 54 38 45 73 71 73 82 70 78 72 61 74 79 76 49 26 25 33 34 43 43 50 49 41 37 35 34 25
276 293 100 35 55 137 189 205 132 146 123 147 126 109 89 95 98 127 122 128 84 67 31 31 22 18 46 62 83 80 70 77 97 89 81 56 49 30 24 24 48 59 66 68 61 58 52 52 39
243 112 138 50 32 -43 -20 97 99 99 140 119 62 42 55 68 88 75 92 101 88 88 69 40 42 3 45 68 66 78 82 87 100 95 72 55 57 47 56 69 59 68 70 70 71 62 57 58 62
198 104 29 78 60 62 49 177 229 104 97 105 61 74 51 54 50 65 55 52 85 106 137 127 84 36 93 115 83 69 85 78 90 81 59 54 71 94 95 100 91 103 94 81 74 67 54 55 61
166 137 87 107 93 60 57 73 119 157 86 94 187 185 78 51 43 41 42 56 80 84 109 124 153 129 105 133 85 78 77 76 59 81 66 58 81 126 134 90 100 96 110 104 80 67 69 73 73
129 143 205 203 75 47 35 79 195 57 137 103 103 115 144 124 78 71 76 72 111 84 74 78 118 122 138 118 110 90 95 77 74 71 95 89 73 124 134 128 119 105 91 97 97 98 85 94 109
243 146 145 175 211 94 108 112 38 59 97 117 81 54 57 76 105 84 41 52 85 92 101 62 57 103 132 144 114 109 124 111 107 97 85 104 105 113 138 162 165 137 119 89 98 85 119 143 141
201 184 201 80 182 103 81 80 49 72 97 87 90 79 67 71 52 56 60 67 50 93 134 128 103 86 88 141 106 101 84 113 118 103 123 108 117 148 155 169 166 179 172 179 172 159 159 177 183
210 169 191 173 135 157 115 45 66 83 92 86 92 85 70 71 93 66 59 73 118 111 101 109 124 110 71 82 120 99 103 103 120 132 126 127 144 148 180 188 165 182 180 184 194 190 222 229 229
224 148 155 179 180 158 109 91 116 138 90 79 81 70 71 68 73 56 85 148 178 233 262 242 170 126 119 98 93 107 114 113 125 148 156 174 146 202 192 186 223 233 232 202 226 226 242 259 260
204 168 142 107 119 135 85 77 93 132 122 104 85 71 91 120 136 145 200 225 218 269 278 270 245 268 236 221 204 186 164 147 138 128 119 164 178 188 210 242 232 278 280 250 234 243 237 251 335
145 129 83 138 92 130 118 93 61 96 106 89 75 65 72 114 122 175 203 226 227 198 212 214 208 201 214 222 239 233 216 214 199 168 147 138 179 188 241 226 289 319 320 304 291 312 331 306 386
121 155 179 150 217 222 164 111 87 74 93 114 129 110 119 103 121 166 205 204 185 177 143 148 167 161 134 143 170 212 241 244 230 232 196 155 140 145 170 204 253 273 340 336 333 335 362 342 419
131 139 177 192 222 144 111 53 84 60 75 113 165 159 122 124 162 182 168 143 68 64 129 159 181 195 182 145 113 107 127 149 159 156 166 156 138 119 114 137 174 230 254 304 343 366 377 472 442
129 125 190 237 206 155 118 95 37 97 135 182 180 144 121 149 177 215 180 142 98 114 134 149 164 180 177 166 157 146 129 100 99 130 143 115 139 133 111 99 128 174 234 228 259 350 318 397 437
202 315 301 236 169 119 94 92 61 111 112 178 181 144 163 194 183 150 153 182 137 119 129 137 141 140 157 144 153 158 152 143 133 118 119 117 109 123 116 148 166 162 159 179 209 198 255 295 368
263 280 268 217 177 90 124 122 73 121 96 201 184 162 120 115 124 149 145 150 135 113 104 101 116 131 153 159 158 155 152 143 142 140 142 156 163 182 219 165 140 144 128 122 152 199 215 256 307
178 231 237 198 202 127 175 87 90 85 111 163 154 111 95 90 113 121 116 116 113 105 102 105 116 132 149 145 145 158 173 161 160 157 164 181 183 189 232 256 213 147 114 119 133 161 162 219 242
195 197 171 163 158 128 130 143 124 163 181 170 147 132 78 101 105 107 115 100 96 102 108 102 107 121 127 132 140 163 179 194 182 181 167 149 159 175 186 188 223 244 178 135 127 155 164 182 224
233 220 192 195 145 147 118 105 78 128 171 182 176 151 112 104 115 108 101 86 101 116 120 137 115 106 101 107 123 141 177 189 160 134 128 120 127 147 161 161 173 204 222 220 233 240 238 210 210
286 248 164 107 121 143 119 90 65 62 177 238 191 135 102 107 116 102 91 90 98 105 106 118 130 105 97 103 121 140 161 179 143 99 115 110 129 135 163 174 178 182 184 178 177 188 201 202 204
165 138 126 159 147 110 116 109 90 84 152 167 158 129 106 106 83 68 59 91 101 87 91 116 124 104 101 102 110 117 128 143 127 108 125 159 151 144 149 160 169 163 158 149 140 158 156 142 143
Wind_Speed
42 44 42 39 42 42 49 42 34 31 31 31 27 26 19 27 33 33 14 14 18 18 19 20 25 27 30 33 35 37 39 38 38 38 38 39 37 37 37 36 37 38 39 41 42 42 41 41 40
40 41 37 40 49 51 51 50 41 27 28 30 33 27 28 30 25 15 11 17 21 19 18 20 24 23 25 29 31 33 35 36 36 37 38 38 37 37 38 39 37 38 38 39 40 40 40 40 40
35 40 43 46 53 54 42 45 29 26 26 31 37 31 30 31 17 7 7 16 18 18 15 18 18 18 21 24 27 30 32 34 36 36 37 37 37 37 38 40 38 37 38 39 40 39 40 39 39
36 41 46 60 64 61 45 42 25 28 29 29 29 26 24 33 26 11 5 18 16 15 14 16 17 16 18 19 22 25 28 31 35 36 36 36 36 35 36 36 36 36 37 38 39 39 39 39 38
46 45 61 67 73 65 50 47 28 31 31 32 28 27 28 23 11 1 2 6 11 12 12 9 10 12 15 16 17 20 24 27 32 34 34 35 35 35 33 34 35 35 36 37 37 37 37 37 36
68 51 71 82 71 66 52 50 33 34 28 30 24 25 26 14 7 3 2 4 8 9 5 6 7 8 11 12 13 15 19 23 27 31 32 32 32 32 32 31 32 32 33 34 35 35 35 34 34
69 77 80 74 71 64 53 46 36 35 34 36 30 31 22 13 10 3 3 10 9 9 5 4 4 6 8 10 10 12 15 19 23 27 28 29 30 30 31 30 30 31 31 32 32 32 32 32 32
59 67 89 74 71 68 53 49 40 42 39 34 26 35 26 18 16 9 2 6 6 7 7 3 2 4 6 9 10 12 12 15 18 21 23 24 25 27 27 27 27 28 28 28 29 29 29 30 30
52 65 87 91 84 81 50 50 39 34 37 32 30 23 18 16 17 10 5 3 3 5 6 7 2 3 6 6 8 9 10 10 13 15 17 19 20 21 22 23 24 23 23 23 25 25 26 27 28
63 76 82 74 74 64 58 53 52 45 43 32 24 16 13 17 21 17 12 12 12 5 4 5 3 2 3 5 4 6 6 7 7 9 12 14 14 15 17 17 18 17 18 19 20 21 22 23 25
70 90 78 78 78 65 58 64 57 44 55 52 38 28 23 19 22 24 22 20 20 15 14 9 3 2 3 7 6 6 6 3 2 4 6 9 10 11 11 12 13 15 14 14 16 17 18 18 22
77 81 76 76 68 53 60 58 61 46 43 39 41 28 28 28 27 24 27 27 24 21 21 22 16 3 5 5 6 6 5 4 1 2 4 3 4 2 5 8 9 10 10 10 11 14 15 17 20
81 67 77 69 58 58 67 74 53 54 33 25 25 30 30 32 33 29 24 26 26 26 26 27 25 23 13 7 7 6 2 2 0 1 3 2 4 3 3 5 7 9 10 10 10 12 15 18 19
63 71 64 62 64 60 58 61 54 42 38 37 36 39 39 38 36 38 33 30 26 25 28 32 31 28 26 16 10 10 6 4 5 4 4 7 6 6 7 8 10 10 10 12 13 13 15 17 19
49 74 66 62 61 63 53 56 65 54 40 44 49 49 48 47 46 44 37 37 30 27 23 19 20 23 25 26 18 17 22 20 7 7 7 8 8 11 10 13 16 14 13 16 18 17 20 21 26
47 48 79 67 67 54 53 78 72 67 61 57 54 54 55 57 55 53 47 42 38 39 32 26 24 20 17 20 24 22 22 24 27 15 12 11 12 14 16 17 18 17 16 19 23 26 27 28 29
58 69 76 68 62 59 61 79 64 58 62 67 62 61 61 62 61 58 51 47 48 42 31 26 24 22 19 21 22 23 25 26 27 31 27 17 16 17 20 21 21 22 23 25 27 30 31 32 34
62 69 71 75 64 60 68 74 54 57 57 59 60 63 65 67 61 51 47 37 39 39 39 38 38 34 23 22 25 26 25 27 28 27 30 37 30 23 24 26 28 29 29 29 31 33 35 38 36
44 52 63 64 54 61 77 74 74 58 50 49 56 58 58 57 50 41 40 39 40 42 44 46 50 49 41 38 35 33 32 32 33 33 32 33 36 40 33 33 34 33 33 34 33 36 37 39 37
40 41 62 51 54 60 67 80 72 76 70 63 59 60 60 56 47 43 42 42 42 46 49 53 53 52 51 49 47 46 45 44 40 39 37 38 43 45 49 43 40 39 40 39 39 39 43 43 36
48 49 51 56 44 48 55 73 74 75 79 68 62 58 53 54 50 47 43 42 45 49 53 56 57 58 59 59 59 58 54 54 52 51 51 47 46 47 47 50 47 46 44 46 46 45 45 48 44
47 41 44 40 53 72 53 83 70 76 77 72 56 53 53 51 41 39 40 43 45 47 46 47 49 51 54 55 58 59 60 63 60 57 55 55 49 48 46 46 46 50 50 51 49 50 50 50 52
45 29 33 35 50 60 63 73 72 60 69 65 56 54 46 40 37 40 42 44 40 40 42 43 45 47 49 50 52 54 57 60 62 62 64 61 56 47 46 45 47 47 46 50 50 50 51 52 58
19 21 27 37 48 79 71 71 71 61 62 53 47 41 37 35 35 36 36 36 35 38 41 44 45 47 49 49 50 52 55 59 61 61 62 64 61 57 51 44 43 42 45 45 47 50 51 53 58
30 22 39 53 63 79 57 71 78 56 53 46 39 34 35 34 34 32 33 36 40 43 44 46 47 49 49 50 53 56 58 59 59 58 57 59 59 58 60 50 45 44 44 49 48 46 49 52 56
33 33 36 53 62 63 53 71 70 63 42 28 27 27 28 30 30 30 33 37 40 43 44 46 47 48 51 53 56 57 57 57 57 57 56 55 54 53 54 55 51 49 47 48 49 50 53 52 55
32 46 40 41 45 53 54 60 56 42 31 26 29 24 24 28 27 30 31 35 39 40 43 46 48 50 53 55 58 58 59 58 55 50 51 54 54 54 55 55 55 57 55 52 50 51 53 52 54
33 28 41 41 49 58 56 60 61 46 39 31 31 30 31 28 29 31 33 37 37 40 43 46 47 49 51 54 55 55 54 53 46 49 53 53 52 52 53 54 54 55 53 52 50 53 54 58 57
29 34 37 33 37 50 53 58 47 46 36 31 30 30 31 33 33 35 35 36 37 41 45 47 48 48 50 51 51 50 49 45 42 46 48 47 47 50 51 52 51 51 52 54 52 51 50 48 46
33 16 19 37 41 43 45 52 46 32 29 33 33 28 29 29 33 35 37 36 40 43 44 45 46 48 49 49 48 47 46 45 43 44 47 46 46 47 48 47 47 48 49 50 49 48 47 45 39
Wind_Direction
269 271 274 268 252 253 247 249 261 256 260 266 276 279 279 279 278 270 317 71 89 98 96 84 87 82 74 68 64 63 64 60 57 44 37 35 35 32 33 39 57 57 53 46 42 43 45 46 46
270 271 270 258 247 243 245 252 257 263 263 272 269 275 274 270 290 299 318 85 94 100 97 93 88 77 71 68 63 58 58 58 47 40 35 35 36 39 37 51 58 60 51 44 42 44 46 44 43
278 266 257 251 245 240 245 263 253 263 270 269 264 273 276 271 300 317 315 100 88 100 95 94 89 77 74 68 62 64 60 52 42 36 37 40 43 49 49 52 54 53 50 47 47 49 48 44 42
278 264 257 246 241 239 246 270 252 257 267 268 270 264 282 281 281 300 76 105 90 96 95 91 89 78 78 67 62 66 62 49 43 42 43 44 49 51 48 51 52 52 51 49 51 52 48 45 43
262 264 247 244 241 241 256 265 262 260 261 258 269 263 271 291 326 4 141 114 90 95 100 81 70 73 76 72 56 62 54 48 43 43 45 48 53 53 52 52 53 53 52 52 52 51 48 44 41
237 256 242 238 241 243 258 261 260 257 259 256 270 264 275 296 310 295 102 99 102 103 92 78 72 48 67 60 55 51 50 45 47 44 46 48 51 53 57 56 54 54 53 53 52 49 45 41 38
236 237 240 243 241 246 255 260 257 254 258 259 276 260 266 277 291 303 35 94 90 89 74 59 75 34 30 16 42 45 44 52 51 50 50 50 51 56 59 61 60 59 58 55 50 45 41 38 36
237 237 236 242 239 240 252 263 254 250 256 268 271 259 251 262 282 290 337 96 79 66 47 43 6 1 5 6 16 22 32 53 57 53 52 53 59 59 57 58 60 61 58 52 46 40 35 35 34
235 234 234 234 235 232 261 278 252 255 254 275 272 262 258 259 273 275 281 315 27 17 46 57 60 323 323 341 354 13 25 57 58 56 56 55 54 57 57 61 54 56 54 47 42 37 35 34 30
232 231 236 235 234 241 261 265 263 250 250 260 267 266 266 270 265 264 260 272 286 306 347 35 53 52 11 339 335 348 10 25 47 46 56 49 60 65 59 59 52 61 48 43 35 33 30 25 18
232 235 233 237 240 250 257 256 267 251 251 255 255 254 255 265 266 266 265 273 284 293 296 301 316 334 2 333 349 352 344 353 30 71 59 55 69 74 55 42 30 24 28 27 21 19 17 17 8
235 235 234 238 244 251 252 259 260 256 258 264 257 251 252 257 263 268 267 268 279 285 290 298 293 303 334 337 341 353 342 359 8 153 134 60 25 59 18 8 3 357 5 4 1 357 358 356 353
236 239 237 241 245 247 252 252 254 263 252 263 259 252 257 260 264 269 274 276 280 278 281 288 297 299 306 318 324 340 350 341 101 222 204 287 325 306 286 328 344 339 332 326 330 337 340 337 341
242 241 243 251 239 242 250 244 253 263 255 255 258 258 261 264 269 269 270 278 275 281 281 280 286 292 302 306 305 311 288 270 291 277 260 222 286 295 261 292 306 307 309 312 309 310 318 320 326
254 235 242 244 241 247 252 249 243 257 261 257 259 262 262 265 268 270 274 276 278 278 281 282 283 281 291 302 301 305 312 307 279 293 295 280 270 295 271 285 300 290 288 303 303 295 306 311 313
241 242 234 242 237 252 248 246 251 256 258 256 260 261 262 263 266 268 272 278 281 278 278 277 286 289 276 284 295 289 295 304 307 292 293 284 280 288 289 279 281 288 278 290 303 307 301 303 303
234 238 236 241 241 251 252 250 257 262 259 255 258 261 263 263 264 266 270 275 279 283 286 282 283 286 284 289 289 289 287 286 295 303 301 282 276 281 285 287 284 288 285 283 289 297 301 299 299
233 237 239 240 244 249 251 251 259 263 260 256 259 263 264 264 266 271 271 279 284 288 290 291 291 288 286 285 289 290 288 290 282 285 298 305 295 279 279 284 286 290 288 285 284 287 292 297 292
243 244 245 250 253 250 250 254 252 259 261 258 260 263 265 267 274 276 276 282 285 287 289 292 290 292 298 292 289 289 286 286 290 291 288 289 300 300 286 283 287 283 283 281 281 287 287 289 292
246 248 245 258 254 249 254 252 254 254 256 258 261 264 265 269 274 275 277 282 285 287 289 289 291 291 293 296 298 299 294 292 288 290 286 288 295 293 298 289 281 281 282 282 282 282 289 287 283
249 255 256 252 254 258 259 258 256 256 256 260 260 265 267 268 271 272 276 283 288 290 291 292 291 290 291 292 293 294 298 298 298 296 296 294 293 295 293 289 288 283 282 280 280 281 281 284 281
252 262 267 248 248 249 258 254 260 257 255 254 255 262 268 270 270 272 278 286 290 293 298 298 298 298 297 298 295 295 295 295 298 300 299 298 297 296 296 297 295 287 284 280 281 283 280 281 279
259 268 265 256 256 257 257 258 260 264 252 253 256 261 266 268 269 273 281 288 292 298 299 302 303 302 303 303 304 303 302 300 300 300 301 302 302 296 296 295 297 298 292 287 284 286 284 277 282
260 259 268 268 264 254 254 253 258 258 255 255 259 257 259 266 271 277 285 290 294 299 301 302 303 304 306 307 308 309 308 307 305 304 305 302 305 306 300 297 296 295 301 299 295 293 287 283 282
258 243 265 263 257 253 260 252 252 265 263 255 253 256 259 266 270 275 281 288 294 297 300 303 306 306 311 312 310 309 308 308 308 309 310 310 309 310 313 309 305 302 302 304 304 301 296 291 287
246 254 268 265 258 258 261 254 256 264 262 256 250 256 259 263 269 277 286 293 296 300 305 309 311 311 311 311 310 309 309 309 309 310 311 313 314 314 317 316 318 314 311 309 307 307 306 301 296
252 255 268 279 273 260 260 261 265 264 253 246 249 252 261 270 271 281 292 299 303 308 311 311 310 310 311 311 310 308 308 311 313 317 316 314 316 316 317 317 317 316 313 312 311 312 312 309 303
268 272 270 273 267 259 261 258 257 251 250 248 245 255 265 270 279 287 294 300 307 309 311 313 314 313 314 313 312 312 313 316 321 321 319 320 320 320 320 320 321 320 321 321 319 317 319 316 314
270 268 272 272 279 267 261 259 266 256 249 245 252 263 267 273 279 287 298 306 311 312 312 312 313 314 314 316 317 319 321 325 330 330 329 331 333 330 327 326 327 329 328 326 327 327 328 326 325
270 273 263 272 268 273 272 265 274 269 254 256 261 270 274 281 286 296 303 308 311 312 313 312 311 312 314 317 320 324 326 327 329 334 333 335 334 336 336 340 341 340 339 340 340 339 341 340 341